Wind_Speed
6 9 10 12 10 3 8 12 2 5 7 6 10 10 17 4 13 16 19 22 18 10 3 17 22 26 29 32 36 36 35 33 34 32 33 32 33 34 36 34 34 35 35 34
6 5 8 14 12 9 9 10 5 5 10 3 4 8 5 14 13 16 19 18 18 20 18 17 18 26 31 32 35 37 34 35 32 33 33 34 35 34 36 33 30 34 35 33
3 7 10 6 7 10 11 8 4 5 8 11 7 11 13 13 13 13 14 15 16 16 16 18 23 13 30 32 34 35 34 32 35 34 33 32 31 32 31 33 32 29 29 27
2 5 3 6 8 7 5 4 3 8 13 15 10 5 14 13 12 12 12 14 15 14 18 26 27 24 10 23 37 35 33 32 32 34 35 32 33 34 33 32 30 25 21 20
1 1 8 9 4 4 3 6 8 8 8 9 11 5 6 13 12 9 10 9 10 18 23 25 27 32 18 21 26 29 32 32 32 30 30 32 30 29 28 29 26 25 24 24
1 3 4 0 11 7 5 2 7 8 7 7 8 5 5 11 14 11 10 12 15 21 20 24 29 32 23 16 8 9 22 24 27 32 35 32 31 31 30 31 31 29 28 25
5 3 6 2 10 7 2 2 1 1 4 4 4 2 4 7 10 9 10 13 16 17 16 18 24 23 20 19 19 11 15 19 20 23 28 30 31 28 31 37 40 36 36 32
3 3 6 3 6 2 4 4 3 5 5 7 6 7 7 7 8 9 9 11 15 14 15 19 21 16 13 16 14 18 21 24 26 26 28 33 35 33 30 33 36 36 38 35
7 6 5 3 1 5 2 3 3 7 7 7 6 6 6 7 10 11 12 14 15 13 11 15 18 11 9 9 16 22 27 27 28 30 29 29 34 34 30 29 28 27 26 28
2 3 4 4 2 4 7 4 8 9 8 7 5 5 6 8 8 8 10 12 15 14 11 11 13 11 10 12 18 25 31 28 28 30 30 30 29 26 26 26 25 28 27 26
2 8 15 9 6 5 4 10 11 9 9 7 8 8 7 6 7 6 7 6 13 12 12 10 10 12 12 14 21 25 27 29 30 30 32 34 34 29 30 27 25 31 30 30
1 1 7 6 2 11 8 10 9 9 9 11 11 8 7 5 7 10 9 9 11 14 14 13 12 13 14 18 26 27 27 27 28 31 33 34 39 46 44 40 36 35 34 36
4 8 13 1 10 13 13 11 10 11 10 11 11 9 9 5 9 5 4 8 14 12 13 15 20 21 19 22 28 31 31 30 31 32 32 33 33 36 38 40 37 31 30 24
9 6 6 13 8 14 8 6 13 14 14 12 11 10 8 9 9 7 9 12 16 13 14 15 19 22 26 29 31 32 33 32 33 32 34 33 30 28 27 27 28 27 26 23
11 13 12 10 13 14 13 13 10 7 9 9 12 11 10 9 9 10 12 15 21 19 21 23 23 21 19 23 27 32 33 29 28 28 28 30 34 31 28 29 26 26 23 26
9 11 12 12 12 13 13 13 10 5 9 8 8 11 11 11 11 12 14 13 16 15 15 23 24 21 27 28 31 35 31 33 28 30 28 26 26 27 25 23 23 21 17 18
11 10 10 10 10 11 10 9 10 8 9 8 11 13 13 13 15 16 17 20 23 23 20 24 24 24 27 29 28 28 30 31 29 29 28 25 25 24 23 27 25 25 23 20
10 10 10 9 9 9 8 8 8 9 7 12 14 15 13 13 11 15 18 22 27 27 25 25 26 26 26 27 27 28 26 26 26 26 26 26 25 25 25 25 23 24 24 21
13 11 10 11 13 8 6 6 8 10 11 12 14 14 16 16 18 19 21 23 22 21 21 24 24 25 24 23 25 26 27 28 27 27 28 28 26 24 24 23 24 23 21 19
9 11 12 9 11 11 7 8 9 11 13 17 17 18 18 19 20 23 25 23 20 19 19 21 24 25 24 23 24 25 27 28 28 28 30 29 28 27 26 24 23 22 19 18
7 9 9 9 9 13 13 11 11 13 14 16 18 18 19 20 22 20 21 18 17 19 20 20 21 24 24 24 25 25 26 26 24 24 25 27 28 26 26 24 22 20 18 16
6 6 7 9 10 11 13 14 17 18 18 19 19 21 22 21 24 25 21 18 18 20 22 23 23 22 24 25 27 27 27 26 26 27 26 25 24 24 22 20 19 17 14 12
10 11 12 12 11 13 16 17 17 17 17 18 18 19 19 17 16 16 15 18 21 22 24 24 23 24 24 26 27 27 27 27 26 25 23 22 21 20 18 16 14 12 10 7
11 12 14 15 16 16 14 17 20 21 23 23 22 22 22 22 23 23 23 23 24 24 23 21 22 23 23 23 23 23 23 22 21 20 18 17 16 15 14 12 11 10 9 6
12 14 14 14 12 12 16 17 19 19 21 22 22 21 21 18 20 21 23 23 23 22 22 19 19 20 21 22 22 23 22 20 18 17 16 16 14 12 10 7 6 8 6 3
13 11 12 12 10 12 14 14 14 14 16 18 19 20 22 24 24 21 21 19 19 19 19 18 19 21 21 20 18 18 17 16 14 13 12 10 8 7 6 7 5 3 0 3
12 12 13 15 15 15 15 14 14 14 15 16 18 18 19 20 19 20 19 17 17 18 18 18 17 17 16 15 14 13 13 12 11 10 10 8 5 4 2 3 2 2 3 4
Wind_Direction
348 335 331 319 326 30 331 295 327 314 308 51 122 230 276 339 23 16 20 14 357 13 234 176 181 181 182 185 186 188 187 191 198 198 201 200 203 208 213 212 210 212 212 216
323 335 296 293 281 277 280 287 270 296 288 332 219 221 13 61 45 26 25 10 7 2 5 354 185 184 183 185 189 189 187 194 193 195 198 201 203 204 210 210 211 215 219 216
301 332 331 301 248 259 266 276 274 289 303 298 309 24 66 55 44 31 23 11 7 359 354 353 357 257 182 188 185 191 194 188 192 193 195 199 203 204 209 210 216 210 208 208
288 355 258 256 318 303 206 313 350 56 37 27 25 43 70 48 37 24 22 16 4 357 345 338 339 336 258 202 186 189 193 194 187 187 193 194 192 197 199 203 200 189 176 173
174 214 301 311 338 33 69 48 27 49 42 27 7 2 38 27 22 19 51 24 4 353 342 349 353 336 310 222 204 189 190 193 193 190 186 187 191 184 175 169 154 147 145 141
130 192 237 171 358 21 1 113 17 47 33 20 22 39 328 358 3 30 55 31 8 352 352 357 354 359 7 33 123 196 201 188 188 190 183 179 174 163 155 149 139 138 128 126
208 266 281 181 296 316 18 180 245 162 82 34 61 176 287 354 41 50 42 26 7 358 360 360 355 4 26 26 50 70 114 141 151 156 150 153 146 134 130 126 124 115 109 108
182 215 247 311 239 242 202 241 218 113 88 54 22 4 354 26 44 37 31 26 10 356 353 359 4 6 47 50 59 77 92 93 99 111 120 129 128 121 116 115 114 114 112 103
184 206 265 15 153 281 249 267 108 95 80 69 28 5 18 25 34 21 14 6 0 0 358 7 6 14 65 83 103 102 90 84 90 97 101 109 114 115 110 111 110 106 102 100
46 287 283 287 233 311 33 44 100 87 79 63 65 47 34 35 29 22 359 10 11 8 26 26 24 40 69 94 104 103 102 96 94 95 96 96 96 99 105 108 110 107 105 104
319 325 326 348 1 303 305 86 83 71 72 59 48 48 50 32 18 357 347 13 42 18 23 41 53 60 72 89 100 92 93 95 93 91 90 86 83 86 85 88 102 102 101 102
252 30 278 177 308 306 105 81 71 76 74 59 50 45 58 40 24 2 349 16 57 47 40 36 66 67 79 97 103 98 93 91 95 95 94 94 92 87 86 95 98 102 106 110
338 319 281 187 65 68 88 87 86 83 69 67 48 51 43 51 52 39 9 64 60 63 67 69 74 73 82 94 101 101 101 101 99 98 97 98 97 99 97 85 85 86 92 98
351 351 29 31 49 45 61 116 107 94 94 96 97 83 82 78 56 40 29 51 73 57 55 67 83 91 107 111 106 104 106 111 113 115 112 105 101 97 98 100 101 93 91 93
6 31 28 32 38 30 32 23 38 115 110 91 84 88 82 79 71 56 60 77 83 69 65 65 59 60 91 105 110 110 110 103 104 101 101 105 110 108 106 104 101 105 102 93
15 29 25 31 23 21 20 19 1 57 101 96 90 85 88 91 85 72 67 71 78 67 67 77 73 79 92 92 93 94 94 102 103 106 103 103 104 105 106 102 101 101 108 111
22 21 18 18 14 14 6 19 360 109 119 113 116 117 110 102 89 77 72 74 74 72 70 77 78 93 100 99 96 96 98 97 101 102 103 105 106 106 108 105 100 98 101 112
24 37 28 28 9 358 12 17 35 52 79 106 112 109 105 103 101 91 84 82 76 68 63 75 92 92 92 95 98 99 99 100 101 101 103 101 103 108 108 107 105 104 102 102
22 24 31 30 11 3 25 48 65 82 91 101 105 104 106 101 99 94 89 80 75 71 64 77 84 87 86 89 94 96 98 98 96 97 100 103 103 106 108 109 109 108 107 103
27 35 33 43 32 20 30 53 78 84 97 107 104 99 93 91 93 91 86 77 76 82 83 83 84 82 82 86 92 95 99 100 101 104 107 106 105 106 108 109 109 109 108 104
49 44 37 46 43 36 46 63 82 86 93 103 107 104 101 96 94 94 90 87 78 92 94 91 93 97 101 102 97 94 95 96 99 102 103 104 108 110 110 111 112 112 110 110
63 61 56 68 65 56 62 76 89 92 91 95 99 100 96 90 88 81 82 90 97 98 94 94 95 96 100 103 103 101 102 102 102 106 107 110 111 112 113 116 117 115 113 111
65 77 76 65 64 71 72 74 78 88 85 89 92 89 89 88 89 95 91 91 98 98 95 100 109 111 110 106 106 108 110 109 110 114 118 119 120 120 120 120 118 117 121 109
78 85 90 89 85 78 74 73 78 82 86 86 89 99 101 96 85 95 107 111 106 101 98 105 108 109 110 110 112 112 111 113 115 115 115 115 117 123 118 115 114 114 121 120
98 99 96 88 86 91 93 89 84 81 83 82 86 95 101 102 104 106 108 110 109 106 105 109 111 112 112 114 114 114 114 116 117 118 117 115 117 116 125 125 119 132 135 137
71 71 78 95 110 100 98 97 91 91 93 91 87 94 99 106 107 108 109 109 111 112 110 109 109 109 108 110 114 114 115 114 114 112 116 112 116 128 131 125 123 135 212 324
76 76 75 71 78 91 95 99 101 97 100 103 101 103 107 109 111 112 110 112 112 111 109 107 106 105 106 105 103 109 113 115 116 115 119 117 108 96 124 184 212 288 317 333
Height
702 699 698 697 693 692 708 701 696 692 688 684 691 701 679 671 669 668 663 660 653 647 653 649 659 664 671 676 681 687 695 701 705 712 717 722 727 732 736 740 743 747 751 755
704 701 699 700 691 692 693 692 690 688 688 676 674 673 670 679 680 677 673 673 670 665 665 666 650 655 661 667 673 679 685 691 699 705 710 714 719 724 729 735 738 741 746 750
716 702 706 713 694 687 684 683 687 696 688 672 675 677 686 687 686 685 683 681 678 677 675 671 670 664 654 660 666 672 677 683 690 697 703 709 715 720 725 729 734 736 740 743
729 716 726 696 679 679 683 682 681 685 688 686 685 683 685 686 687 685 684 683 681 681 677 673 668 666 664 659 654 662 669 675 680 686 693 701 707 711 716 721 725 729 734 738
732 732 711 692 683 684 685 698 690 691 691 690 685 680 682 688 689 687 686 687 687 686 682 677 672 666 660 653 661 659 662 667 673 681 688 694 700 703 709 714 721 727 733 738
736 736 729 696 690 681 682 704 693 694 696 695 692 704 698 688 686 687 691 690 690 687 684 679 674 667 658 651 654 661 662 664 670 676 680 686 693 700 705 712 720 727 734 741
736 734 715 693 694 685 703 711 692 691 695 697 700 701 695 691 692 693 695 693 693 690 687 685 681 675 671 667 663 666 664 666 669 674 679 686 694 704 711 713 717 729 736 744
733 739 727 689 689 698 697 692 689 693 693 698 698 696 694 694 696 696 698 697 695 691 688 686 684 681 679 677 676 673 672 674 677 682 685 690 697 708 718 721 726 730 736 745
715 713 694 690 694 693 689 691 689 694 696 697 699 700 699 699 700 701 701 700 697 695 691 687 687 686 683 682 679 679 681 683 686 690 696 701 703 710 719 727 734 741 747 751
702 694 692 690 689 690 688 689 692 694 697 700 703 704 704 704 706 708 707 701 700 699 695 693 692 690 689 686 684 682 683 690 695 699 705 710 715 722 726 732 739 743 750 757
705 699 699 702 697 693 689 692 694 698 700 705 704 709 710 712 711 712 712 708 701 703 699 698 697 696 694 693 690 690 693 696 701 707 712 717 722 731 735 742 746 746 753 760
707 703 707 702 696 695 694 696 698 701 706 711 712 715 715 717 717 720 720 714 706 705 705 703 701 701 699 697 695 698 702 708 712 716 721 728 731 737 747 753 758 762 765 766
712 707 708 693 693 695 698 702 705 706 708 712 716 719 721 722 724 727 726 717 711 712 711 709 705 705 705 705 704 703 709 715 720 724 730 736 742 746 751 763 767 776 774 785
707 702 702 699 704 704 703 702 703 707 713 719 723 726 729 728 729 730 727 721 717 719 719 717 714 712 711 710 712 713 716 721 724 730 732 737 747 755 760 764 768 778 783 791
711 710 709 708 708 707 706 705 709 716 720 723 726 727 729 730 732 732 730 726 723 726 724 723 723 723 721 721 720 718 720 728 733 739 743 745 746 757 767 770 780 785 793 790
718 718 717 717 718 717 715 716 716 717 722 726 728 730 733 735 736 735 734 732 729 731 733 728 730 733 729 730 729 727 734 732 742 744 750 757 762 765 770 777 782 790 799 803
727 725 725 726 726 725 725 726 724 721 725 728 731 733 736 738 738 739 738 738 737 736 739 736 738 740 737 737 738 739 741 744 750 754 757 764 768 775 781 780 787 792 802 805
736 736 735 734 734 732 731 731 731 730 730 731 733 735 738 740 742 743 743 743 742 745 746 745 744 747 747 747 747 747 751 755 759 762 766 771 775 780 785 787 792 796 801 804
742 741 741 740 740 738 737 736 736 735 736 736 737 739 742 744 745 746 747 748 750 752 755 753 753 754 756 756 757 757 758 761 765 770 772 776 781 785 789 793 797 799 802 806
747 746 746 745 745 743 741 740 739 738 739 739 742 744 746 749 751 751 752 755 758 760 761 759 760 760 761 764 765 766 765 767 771 774 777 779 783 789 793 797 800 804 807 807
751 750 749 749 749 747 745 744 743 743 744 745 746 749 751 754 756 758 759 761 766 765 765 765 765 764 765 769 772 774 774 776 779 782 785 786 789 795 797 802 806 808 810 811
754 753 753 753 752 751 750 748 748 748 750 751 753 754 756 760 761 763 766 767 770 770 769 769 771 773 774 773 775 777 780 783 785 787 790 794 797 799 802 805 808 811 813 814
757 756 755 755 754 755 754 754 754 755 755 756 758 760 762 765 768 769 771 776 776 776 776 778 777 777 780 779 781 784 785 786 790 793 797 800 802 804 807 808 808 809 812 814
758 758 759 759 759 759 760 761 760 761 762 763 765 766 767 770 773 776 777 779 780 782 783 785 784 783 785 787 788 789 790 793 797 800 802 803 805 807 807 808 810 811 813 814
761 761 762 763 763 765 766 767 767 768 769 770 771 772 774 776 777 782 783 784 786 788 789 791 790 790 791 792 794 795 797 800 802 803 804 805 807 807 810 811 811 811 813 812
765 765 765 765 767 768 769 771 772 774 775 776 778 779 780 782 785 787 788 790 792 794 795 795 795 796 797 798 799 800 801 802 804 805 806 807 807 810 811 811 811 811 812 810
769 770 770 770 771 772 774 776 777 779 780 781 782 785 786 788 789 791 794 795 797 798 798 798 799 800 800 801 802 803 804 805 806 807 807 808 809 810 811 812 811 809 807 807